Location: Newark
(52.4787°S, 179.0532°W)
Time: 02:31:09
(UTC+00:00)

Transit 2A Rocket - Pass Details

Date: 24 November 2019
Orbit: 594 x 909 km, 66.7° (Epoch: 07 December)

Event Time Altitude Azimuth Distance (km) Brightness Sun altitude
Rises 01:45:49 0° 232° (SW) 3,547 8.5 50.1°
Reaches altitude 10° 01:48:52 10° 218° (SW) 2,622 7.9 49.8°
Maximum altitude 01:53:46 24° 165° (SSE) 1,818 6.9 49.2°
Drops below altitude 10° 01:58:37 10° 112° (ESE) 2,598 7.5 48.6°
Sets 02:01:38 0° 98° (E) 3,507 8.1 48.3°
